Location: Newark
(9.4667°S, 159.8167°E)
Time: 05:33:10
(UTC+00:00)

Courier 1B Rocket - Pass Details

Date: 23 November 2019
Orbit: 920 x 1202 km, 28.2° (Epoch: 12 December)

Event Time Altitude Azimuth Distance (km) Brightness Sun altitude
Rises 13:02:43 0° 280° (W) 4,083 - -60.2°
Reaches altitude 10° 13:05:46 10° 274° (W) 3,105 - -60.2°
Maximum altitude 13:13:01 43° 204° (SSW) 1,562 - -60.1°
Drops below altitude 10° 13:19:56 10° 134° (SE) 2,955 - -60.0°
Sets 13:22:47 0° 127° (SE) 3,870 - -59.9°
